TimeCDT,TemperatureF,Dew PointF,Humidity,Sea Level PressureIn,VisibilityMPH,Wind Direction,Wind SpeedMPH,Gust SpeedMPH,PrecipitationIn,Events,Conditions,WindDirDegrees,DateUTC
12:15 AM,66.2,59.0,78,30.19,10.0,East,5.8,-,N/A,,Clear,100,2013-07-14 05:15:00
12:35 AM,64.4,59.0,83,30.20,10.0,East,4.6,-,N/A,,Clear,100,2013-07-14 05:35:00
12:55 AM,64.4,59.0,83,30.20,10.0,East,5.8,-,N/A,,Clear,100,2013-07-14 05:55:00
1:15 AM,62.6,59.0,88,30.20,10.0,ESE,3.5,-,N/A,,Clear,110,2013-07-14 06:15:00
1:35 AM,62.6,59.0,88,30.20,10.0,Calm,Calm,-,N/A,,Clear,0,2013-07-14 06:35:00
1:55 AM,62.6,59.0,88,30.21,10.0,Calm,Calm,-,N/A,,Clear,0,2013-07-14 06:55:00
2:15 AM,62.6,59.0,88,30.21,10.0,Calm,Calm,-,N/A,,Clear,0,2013-07-14 07:15:00
2:35 AM,60.8,59.0,94,30.21,7.0,Calm,Calm,-,N/A,,Clear,0,2013-07-14 07:35:00
2:55 AM,60.8,59.0,94,30.21,7.0,Calm,Calm,-,N/A,,Clear,0,2013-07-14 07:55:00
3:15 AM,60.8,59.0,94,30.22,7.0,Calm,Calm,-,N/A,,Clear,0,2013-07-14 08:15:00
3:35 AM,60.8,59.0,94,30.21,7.0,Calm,Calm,-,N/A,,Clear,0,2013-07-14 08:35:00
3:55 AM,60.8,59.0,94,30.22,7.0,Calm,Calm,-,N/A,,Clear,0,2013-07-14 08:55:00
4:15 AM,59.0,59.0,100,30.21,7.0,Calm,Calm,-,N/A,,Clear,0,2013-07-14 09:15:00
4:35 AM,60.8,59.0,94,30.21,7.0,Calm,Calm,-,N/A,,Clear,0,2013-07-14 09:35:00
4:55 AM,60.8,59.0,94,30.22,5.0,Calm,Calm,-,N/A,,Clear,0,2013-07-14 09:55:00
5:15 AM,59.0,59.0,100,30.22,5.0,Calm,Calm,-,N/A,,Clear,0,2013-07-14 10:15:00
5:35 AM,59.0,57.2,94,30.22,7.0,Calm,Calm,-,N/A,,Clear,0,2013-07-14 10:35:00
5:45 AM,60.8,59.0,94,30.22,10.0,Calm,Calm,-,N/A,,Clear,0,2013-07-14 10:45:00
6:47 AM,66.2,62.6,88,30.22,10.0,Calm,Calm,-,N/A,,Clear,0,2013-07-14 11:47:00
7:45 AM,69.8,64.4,83,30.22,10.0,Calm,Calm,-,N/A,,Clear,0,2013-07-14 12:45:00
8:45 AM,73.4,66.2,78,30.23,10.0,SE,9.2,-,N/A,,Clear,140,2013-07-14 13:45:00
9:45 AM,78.8,66.2,65,30.24,10.0,SE,6.9,-,N/A,,Clear,140,2013-07-14 14:45:00
10:45 AM,78.8,66.2,65,30.25,10.0,SE,6.9,-,N/A,,Mostly Cloudy,140,2013-07-14 15:45:00
11:45 AM,80.6,64.4,58,30.25,10.0,SE,5.8,-,N/A,,Mostly Cloudy,140,2013-07-14 16:45:00
12:45 PM,82.4,64.4,54,30.25,10.0,SSE,9.2,-,N/A,,Mostly Cloudy,150,2013-07-14 17:45:00
1:45 PM,82.4,64.4,54,30.25,10.0,East,5.8,-,N/A,,Mostly Cloudy,90,2013-07-14 18:45:00
2:45 PM,82.4,64.4,54,30.23,10.0,East,4.6,-,N/A,,Mostly Cloudy,90,2013-07-14 19:45:00
3:45 PM,82.4,64.4,54,30.23,10.0,SSE,8.1,-,N/A,,Mostly Cloudy,160,2013-07-14 20:45:00
4:45 PM,82.4,64.4,54,30.23,10.0,ESE,9.2,-,N/A,,Scattered Clouds,120,2013-07-14 21:45:00
5:45 PM,82.4,64.4,54,30.22,10.0,SE,9.2,-,N/A,,Clear,130,2013-07-14 22:45:00
6:45 PM,80.6,62.6,54,30.22,10.0,SE,9.2,-,N/A,,Clear,140,2013-07-14 23:45:00
7:45 PM,78.8,64.4,61,30.23,10.0,SE,6.9,-,N/A,,Clear,130,2013-07-15 00:45:00
8:45 PM,75.2,64.4,69,30.23,10.0,SE,4.6,-,N/A,,Clear,130,2013-07-15 01:45:00
9:15 PM,73.4,62.6,69,30.25,7.0,Calm,Calm,-,N/A,,Clear,0,2013-07-15 02:15:00
9:35 PM,71.6,62.6,73,30.25,10.0,Calm,Calm,-,N/A,,Clear,0,2013-07-15 02:35:00
9:55 PM,69.8,62.6,78,30.26,10.0,Calm,Calm,-,N/A,,Clear,0,2013-07-15 02:55:00
10:15 PM,69.8,62.6,78,30.26,10.0,Calm,Calm,-,N/A,,Clear,0,2013-07-15 03:15:00
10:35 PM,69.8,62.6,78,30.26,10.0,Calm,Calm,-,N/A,,Clear,0,2013-07-15 03:35:00
10:55 PM,68.0,62.6,83,30.25,10.0,Calm,Calm,-,N/A,,Clear,0,2013-07-15 03:55:00
11:15 PM,68.0,62.6,83,30.26,10.0,Calm,Calm,-,N/A,,Clear,0,2013-07-15 04:15:00
11:35 PM,68.0,62.6,83,30.26,10.0,Calm,Calm,-,N/A,,Clear,0,2013-07-15 04:35:00
11:55 PM,68.0,62.6,83,30.26,10.0,Calm,Calm,-,N/A,,Clear,0,2013-07-15 04:55:00